GAOFEN 3-02 (49495 NORAD) Tracking and Keplerian Element Data

This shows tracking and keplerian element data for the satellite.

Feedback or suggestion? Click here.




ElementValue
Catalog49495
NameGAOFEN 3-02
Epoch Orbit781
Epoch Day16.14721434
Epoch Year2022
RAAN25.6337
Inclination98.4141
Eccentricity0.0001204
Argument of Perigee73.3735
Mean Anonmoly286.7602
Mean Motion14.42207375
Decay Rate-7.7E-07
L11 49495U 21109A 22016.14721434 -.00000077 00000+0 -10177-4 0 9996
L22 49495 98.4141 25.6337 0001204 73.3735 286.7602 14.42207375 7813

Live tracking and technical data element details for GAOFEN 3-02 (NORAD 49495). GAOFEN 3-02 can be tracked NOW for your location showing map with azimuth and elevation plus other details from your city location.

Track the satellite on the map from your city or location and see movement details for azimuth, elevation, latitude, longitude, range, height, and movement on the map or in text.







IsCatalogInMostPopularTable: catalog: 49495, numindb: 4
Update: records affected: 1



GetName: 49495 GAOFEN 3-02

Hit Count: updated at: Thu, 20 Jan 2022 16:31:38 GMT